Tracking 31027 objects as of 19-Jul-2025
HD Live streaming from Space Station
objects crossing your sky now

FENGYUN 1C DEB

Track FENGYUN 1C DEB now!
10-day predictions


NORAD ID: 33731
Int'l Code: 1999-025DHU
Perigee: 822.1 km
Apogee: 1,016.6 km
Inclination: 99.5 °
Period: 103.2 minutes
Semi major axis: 7290 km
RCS: 0.0076 m2 (small)
Launch date: May 10, 1999
Source: People's Republic of China (PRC)
Launch site: Taiyaun Space Center, China (TSC)

Note: This is SATELLITE DEBRIS
Your satellite tracking list
STARLINK-3957
Track 1 satellite(s)




NASA's NSSDC Master Catalog

Two Line Element Set (TLE):
1 33731U 99025DHU 25199.77949362  .00002331  00000-0  16484-2 0  9999
2 33731  99.4563 218.3692 0133334  92.7411 268.9018 13.94697663884005
Source of the keplerian elements: AFSPC